• In Hungary
  • List of Countries
  • For 7 days
  • Water Temperature
  • Satellite Maps
  • Weather Map
  • News
  • Weather Widgets
  • user-avatar
    Login

    Hourly Weather Bhopal

    Today, 23 February, Friday

    Time Temperature Precipitation Wind Pressure Humidity
    00:00 +24°C° 0 mm 1 mps 715 mmHg 24%
    01:00 +24°C° 0 mm 1 mps 714 mmHg 25%
    02:00 +23°C° 0 mm 1 mps 714 mmHg 26%
    03:00 +21°C° 0 mm 0 mps 714 mmHg 26%
    04:00 +20°C° 0 mm 0 mps 714 mmHg 27%
    05:00 +20°C° 0 mm 0 mps 714 mmHg 28%
    06:00 +21°C° 0 mm 0 mps 715 mmHg 27%
    07:00 +24°C° 0 mm 1 mps 715 mmHg 26%
    08:00 +25°C° 0 mm 1 mps 716 mmHg 26%
    09:00 +28°C° 0 mm 1 mps 716 mmHg 23%
    10:00 +30°C° 0 mm 1 mps 716 mmHg 20%
    11:00 +32°C° 0 mm 1 mps 717 mmHg 17%
    12:00 +33°C° 0 mm 1 mps 716 mmHg 16%
    13:00 +34°C° 0 mm 1 mps 715 mmHg 14%
    14:00 +35°C° 0 mm 1 mps 715 mmHg 13%
    15:00 +34°C° 0 mm 1 mps 714 mmHg 14%
    16:00 +33°C° 0 mm 1 mps 714 mmHg 16%
    17:00 +33°C° 0 mm 1 mps 714 mmHg 17%
    18:00 +31°C° 0 mm 1 mps 714 mmHg 18%
    19:00 +29°C° 0 mm 1 mps 714 mmHg 19%
    20:00 +27°C° 0 mm 1 mps 715 mmHg 19%
    21:00 +27°C° 0 mm 1 mps 715 mmHg 20%
    22:00 +26°C° 0 mm 1 mps 715 mmHg 21%
    23:00 +26°C° 0 mm 1 mps 715 mmHg 21%

    Tomorrow, 24 February, Saturday

    Time Temperature Precipitation Wind Pressure Humidity
    00:00 +25°C° 0 mm 1 mps 715 mmHg 22%
    01:00 +25°C° 0 mm 1 mps 715 mmHg 23%
    02:00 +24°C° 0 mm 1 mps 714 mmHg 23%
    03:00 +24°C° 0 mm 1 mps 714 mmHg 24%
    04:00 +23°C° 0 mm 1 mps 714 mmHg 25%
    05:00 +23°C° 0 mm 1 mps 714 mmHg 25%
    06:00 +24°C° 0 mm 1 mps 715 mmHg 25%
    07:00 +23°C° 0 mm 0 mps 716 mmHg 24%
    08:00 +24°C° 0 mm 0 mps 717 mmHg 24%
    09:00 +29°C° 0 mm 1 mps 717 mmHg 21%
    10:00 +31°C° 0 mm 2 mps 718 mmHg 19%
    11:00 +34°C° 0 mm 2 mps 718 mmHg 16%
    12:00 +35°C° 0 mm 2 mps 717 mmHg 15%
    13:00 +36°C° 0 mm 3 mps 717 mmHg 15%
    14:00 +37°C° 0 mm 3 mps 716 mmHg 14%
    15:00 +36°C° 0 mm 3 mps 716 mmHg 15%
    16:00 +36°C° 0 mm 2 mps 715 mmHg 16%
    17:00 +35°C° 0 mm 2 mps 715 mmHg 18%
    18:00 +32°C° 0 mm 2 mps 716 mmHg 19%
    19:00 +30°C° 0 mm 1 mps 716 mmHg 20%
    20:00 +28°C° 0 mm 1 mps 716 mmHg 22%
    21:00 +28°C° 0 mm 1 mps 716 mmHg 22%
    22:00 +28°C° 0 mm 1 mps 717 mmHg 22%
    23:00 +28°C° 0 mm 1 mps 717 mmHg 22%

    Day after tomorrow, 25 February, Sunday

    Time Temperature Precipitation Wind Pressure Humidity
    00:00 +27°C° 0 mm 1 mps 716 mmHg 23%
    01:00 +27°C° 0 mm 1 mps 716 mmHg 25%
    02:00 +26°C° 0 mm 1 mps 716 mmHg 26%
    03:00 +25°C° 0 mm 1 mps 716 mmHg 26%
    04:00 +25°C° 0 mm 2 mps 716 mmHg 27%
    05:00 +25°C° 0 mm 2 mps 716 mmHg 28%
    06:00 +25°C° 0 mm 2 mps 717 mmHg 28%
    07:00 +26°C° 0 mm 1 mps 717 mmHg 27%
    08:00 +27°C° 0 mm 1 mps 718 mmHg 27%
    09:00 +30°C° 0 mm 1 mps 719 mmHg 24%
    10:00 +32°C° 0 mm 1 mps 719 mmHg 21%
    11:00 +34°C° 0 mm 1 mps 719 mmHg 18%
    12:00 +35°C° 0 mm 1 mps 718 mmHg 17%
    13:00 +37°C° 0 mm 2 mps 717 mmHg 16%
    14:00 +37°C° 0 mm 2 mps 717 mmHg 15%
    15:00 +37°C° 0 mm 2 mps 716 mmHg 16%
    16:00 +36°C° 0 mm 2 mps 716 mmHg 16%
    17:00 +36°C° 0 mm 2 mps 716 mmHg 17%
    18:00 +34°C° 0 mm 2 mps 716 mmHg 18%
    19:00 +31°C° 0 mm 2 mps 716 mmHg 19%
    20:00 +29°C° 0 mm 2 mps 717 mmHg 20%
    21:00 +28°C° 0 mm 2 mps 717 mmHg 21%
    22:00 +27°C° 0 mm 2 mps 717 mmHg 22%
    23:00 +27°C° 0 mm 2 mps 717 mmHg 23%

    26 February, Monday

    Time Temperature Precipitation Wind Pressure Humidity
    00:00 +26°C° 0 mm 2 mps 716 mmHg 24%
    01:00 +25°C° 0 mm 2 mps 716 mmHg 26%
    02:00 +25°C° 0 mm 3 mps 716 mmHg 27%
    03:00 +24°C° 0 mm 3 mps 716 mmHg 30%
    04:00 +24°C° 0 mm 3 mps 716 mmHg 32%
    05:00 +22°C° 0 mm 3 mps 716 mmHg 34%
    06:00 +24°C° 0 mm 3 mps 716 mmHg 35%
    07:00 +25°C° 0 mm 3 mps 717 mmHg 35%
    08:00 +26°C° 0 mm 3 mps 718 mmHg 36%
    09:00 +29°C° 0 mm 3 mps 718 mmHg 31%
    10:00 +31°C° 0 mm 3 mps 718 mmHg 26%
    11:00 +34°C° 0 mm 3 mps 718 mmHg 22%
    12:00 +35°C° 0 mm 3 mps 717 mmHg 20%
    13:00 +36°C° 0 mm 2 mps 717 mmHg 18%
    14:00 +37°C° 0 mm 2 mps 716 mmHg 16%
    15:00 +36°C° 0 mm 2 mps 716 mmHg 16%
    16:00 +36°C° 0 mm 2 mps 715 mmHg 17%
    17:00 +36°C° 0 mm 2 mps 715 mmHg 17%
    18:00 +34°C° 0 mm 2 mps 715 mmHg 19%
    19:00 +31°C° 0 mm 2 mps 716 mmHg 21%
    20:00 +29°C° 0 mm 2 mps 716 mmHg 22%
    21:00 +28°C° 0 mm 2 mps 716 mmHg 24%
    22:00 +27°C° 0 mm 3 mps 716 mmHg 25%
    23:00 +26°C° 0 mm 3 mps 716 mmHg 26%

    27 February, Tuesday

    Time Temperature Precipitation Wind Pressure Humidity
    00:00 +26°C° 0 mm 3 mps 716 mmHg 27%
    01:00 +25°C° 0 mm 3 mps 716 mmHg 28%
    02:00 +25°C° 0 mm 3 mps 715 mmHg 29%
    03:00 +24°C° 0 mm 3 mps 715 mmHg 29%
    04:00 +24°C° 0 mm 3 mps 715 mmHg 30%
    05:00 +22°C° 0 mm 3 mps 715 mmHg 31%
    06:00 +24°C° 0 mm 3 mps 716 mmHg 30%
    07:00 +25°C° 0 mm 3 mps 717 mmHg 29%
    08:00 +26°C° 0 mm 3 mps 718 mmHg 28%
    09:00 +28°C° 0 mm 3 mps 718 mmHg 25%
    10:00 +31°C° 0 mm 3 mps 718 mmHg 22%
    11:00 +34°C° 0 mm 3 mps 718 mmHg 19%
    12:00 +35°C° 0 mm 3 mps 717 mmHg 18%
    13:00 +36°C° 0 mm 2 mps 716 mmHg 16%
    14:00 +36°C° 0 mm 2 mps 715 mmHg 14%
    15:00 +36°C° 0 mm 2 mps 715 mmHg 15%
    16:00 +36°C° 0 mm 2 mps 715 mmHg 15%
    17:00 +36°C° 0 mm 2 mps 715 mmHg 16%
    18:00 +34°C° 0 mm 2 mps 715 mmHg 17%
    19:00 +31°C° 0 mm 2 mps 715 mmHg 18%
    20:00 +29°C° 0 mm 2 mps 716 mmHg 19%
    21:00 +28°C° 0 mm 2 mps 715 mmHg 20%
    22:00 +27°C° 0 mm 2 mps 715 mmHg 21%
    23:00 +27°C° 0 mm 2 mps 715 mmHg 22%

    28 February, Wednesday

    Time Temperature Precipitation Wind Pressure Humidity
    00:00 +26°C° 0 mm 2 mps 715 mmHg 23%
    01:00 +25°C° 0 mm 3 mps 715 mmHg 24%
    02:00 +25°C° 0 mm 3 mps 715 mmHg 25%
    03:00 +24°C° 0 mm 3 mps 715 mmHg 27%
    04:00 +24°C° 0 mm 2 mps 715 mmHg 29%
    05:00 +24°C° 0 mm 2 mps 715 mmHg 31%
    06:00 +25°C° 0 mm 2 mps 715 mmHg 30%
    07:00 +26°C° 0 mm 1 mps 716 mmHg 30%
    08:00 +27°C° 0 mm 1 mps 717 mmHg 29%
    09:00 +28°C° 0 mm 1 mps 717 mmHg 26%
    10:00 +30°C° 0 mm 1 mps 717 mmHg 24%
    11:00 +32°C° 0 mm 1 mps 718 mmHg 21%
    12:00 +34°C° 0 mm 2 mps 717 mmHg 20%
    13:00 +34°C° 0 mm 2 mps 716 mmHg 19%
    14:00 +35°C° 0 mm 2 mps 715 mmHg 18%
    15:00 +34°C° 0 mm 1 mps 715 mmHg 19%
    16:00 +34°C° 0 mm 1 mps 715 mmHg 19%
    17:00 +32°C° 0 mm 0 mps 715 mmHg 20%
    18:00 +32°C° 0 mm 1 mps 715 mmHg 21%
    19:00 +30°C° 0 mm 1 mps 715 mmHg 22%
    20:00 +29°C° 0 mm 1 mps 715 mmHg 23%
    21:00 +28°C° 0 mm 1 mps 715 mmHg 24%
    22:00 +28°C° 0 mm 1 mps 715 mmHg 25%
    23:00 +27°C° 0 mm 1 mps 715 mmHg 25%
    Show more